Location: Bellflower
(33.8817°N, 118.1170°W)
Time: 13:05:26
(UTC+00:00)

PSLV R/B - Pass Details

Date: 23 November 2020
Orbit: 568 x 597 km, 98.2° (Epoch: 21 January)

Event Time Altitude Azimuth Distance (km) Brightness Sun altitude
Rises 13:10:18 0° 159° (SSE) 2,819 7.9 -17.0°
Reaches altitude 10° 13:12:28 10° 156° (SSE) 1,918 7.1 -16.6°
Maximum altitude 13:16:35 63° 75° (ENE) 662 4.4 -15.7°
Drops below altitude 10° 13:20:41 10° 355° (N) 1,915 6.4 -14.9°
Sets 13:22:52 0° 352° (N) 2,814 7.2 -14.5°
